Regional Weather Roundup
Issued by NWS State College, PA

Home | Current Version | Previous Version | Text Only | Print | Product List | Glossary On
Versions: 1 2 3 4 5 6 7 8 9 10 11 12 13 14 15 16 17 18 19 20 21 22 23 24 25 26 27 28 29 30 31 32 33 34 35 36 37 38 39 40 41 42 43 44 45 46 47 48 49 50
000
ASUS41 KCTP 242110
RWRCTP

REGIONAL WEATHER ROUNDUP
NATIONAL WEATHER SERVICE STATE COLLEGE PA
400 PM EST FRI FEB 24 2017

Note: "fair" indicates few or no clouds below 12,000 feet with no
significant weather and/or obstructions to visibility.

* = STATION THAT DOES NOT REPORT PRECIPITATION /E.G. RAIN...SNOW...ETC/
    THUNDER OR FOG.

PAZ002>004-007>009-013>016-020>023-029>032-242200-
WESTERN PENNSYLVANIA

CITY           SKY/WX    TMP DP  RH WIND       PRES   REMARKS
ERIE           MOSUNNY   76  51  41 S22G29    29.58F
MEADVILLE      SUNNY     72  48  42 S13G26    29.61F
FRANKLIN*      SUNNY     72  50  46 S17       29.66F
NEW CASTLE     FAIR      76  50  40 S8G23     29.62F
BEAVER COUNTY  SUNNY     75  48  38 S14G25    29.64F
BUTLER*        SUNNY     73  50  43 S14G23    29.66F
PITTSBURGH INT PTSUNNY   76  48  37 S18       29.65F
PITTSBURGH     MOSUNNY   76  46  34 S16       29.66F
INDIANA*       MOSUNNY   75  50  41 SW10G17   29.72F
LATROBE        MOSUNNY   75  48  38 SW14      29.69F
WASHINGTON CO* SUNNY     75  46  35 S12G21    29.68F
$$

PAZ004>006-010>012-017>019-024>028-033>037-041-042-045-046-049>053-242200-
CENTRAL PENNSYLVANIA

CITY           SKY/WX    TMP DP  RH WIND       PRES   REMARKS
BRADFORD       NOT AVBL
DUBOIS         MOSUNNY   72  46  39 SW10G24   29.70F
CLEARFIELD       N/A    N/A N/A N/A MISG      29.71F
JOHNSTOWN      SUNNY     72  48  42 S17G23    29.73F
ALTOONA        SUNNY     74  50  42 S16       29.73F
STATE COLLEGE  MOSUNNY   73  50  43 SW12G21   29.73F
WILLIAMSPORT   MOSUNNY   75  50  41 SE15G24   29.72F
SELINSGROVE    SUNNY     74  53  48 S17G23    29.75F
FT INDIANTOWN  PTSUNNY   73  55  54 SE13G22   29.78S
CAPITAL CITY   MOSUNNY   77  49  37 S14       29.77F
HARRISBURG     MOSUNNY   72  52  49 S14       29.77F
YORK           MOSUNNY   72  55  55 SE17G24   29.79F
$$

PAZ038>040-043-044-047-048-054-055-060>062-067>071-242200-
EASTERN PENNSYLVANIA

CITY           SKY/WX    TMP DP  RH WIND       PRES   REMARKS
SCRANTON       MOSUNNY   74  50  42 S9G22     29.77F
MOUNT POCONO   PTSUNNY   65  50  58 S14       29.84F
ALLENTOWN      PTSUNNY   75  50  41 S12G24    29.81F
QUAKERTOWN*    MOCLDY    72  54  53 S8G16     29.84F
READING        MOSUNNY   73  54  51 S13G25    29.80F
LANCASTER      SUNNY     73  55  53 S14       29.81S
COATESVILLE    CLEAR     72  50  46 S9G18     29.86S
POTTSTOWN      MOSUNNY   73  51  46 S10G20    29.85F
BLUE BELL      MOSUNNY   70  54  56 S9G18     29.84F
DOYLESTOWN     MOSUNNY   71  54  54 S10       29.84F
WILLOW GROVE   NOT AVBL
NORTH PHILA    MOSUNNY   74  53  48 SW13G21   29.86F
PHILADELPHIA   PTSUNNY   71  54  54 S9        29.86S
$$




USA.gov is the U.S. government's official web portal to all federal, state and local government web resources and services.